Vorticity
6 6 7 7 7 7 6 6 6 6 7 7 7 7 7 7 6 6 6 6 6 6 7 6 6 5 4 4 3 4 4 4 3 2 2 1 2 3 4 5 7 8 8 8 7 5 4 5 6 7 8 8 10 10 11 11 8 6 4 2 -2 -7 -10 -8 -5 -1 4 8 10
5 5 6 6 7 7 7 7 6 6 6 6 7 7 8 8 8 8 7 7 7 6 7 7 8 8 8 7 6 5 5 5 5 4 4 2 2 1 1 2 3 4 6 7 8 7 6 5 4 5 6 7 8 8 9 10 8 7 6 5 4 1 -4 -8 -12 -12 -9 -5 -2
5 5 5 6 6 7 7 7 7 7 7 7 7 7 7 8 8 8 9 9 8 8 8 7 7 8 9 10 10 9 7 6 6 6 6 5 4 4 3 2 1 1 2 4 6 7 7 7 5 5 4 5 5 6 7 8 7 5 5 6 6 5 3 -0 -5 -6 -5 -2 -1
6 6 6 7 7 7 7 7 7 7 7 7 7 7 7 8 8 8 8 9 9 9 9 9 8 7 7 8 10 11 11 10 9 7 7 6 7 6 6 5 4 2 1 1 2 4 5 7 7 6 5 5 4 5 6 7 7 6 5 6 6 6 6 6 4 4 6 11 10
8 8 8 8 8 8 8 8 8 8 8 8 8 9 9 9 9 9 9 9 9 9 9 10 10 9 8 7 7 8 10 12 12 11 10 8 7 7 8 8 8 7 5 2 1 1 2 3 5 6 7 7 6 6 6 7 8 7 7 11 9 7 7 8 7 8 9 11 16
9 8 8 8 8 8 8 8 8 8 8 8 9 9 9 9 10 10 10 10 10 10 10 10 10 10 10 9 7 6 6 7 10 11 12 11 9 8 7 8 9 10 9 7 4 2 1 0 2 3 5 6 7 7 7 7 8 7 4 -5 1 5 8 8 8 7 5 3 3
9 8 8 8 8 8 9 9 9 9 9 9 9 9 8 8 9 9 9 9 10 10 10 9 9 10 10 10 9 8 6 5 5 7 9 11 11 10 8 7 7 8 9 10 8 7 4 2 1 1 2 3 5 7 7 7 8 8 7 5 4 5 7 8 7 5 1 -7 -10
10 10 10 10 10 10 10 10 10 10 10 10 10 9 9 9 8 8 8 8 8 9 9 9 8 8 8 8 9 9 8 7 6 5 4 6 8 9 10 10 8 7 7 8 9 9 8 6 4 2 1 0 2 4 6 7 7 8 8 8 6 3 1 2 3 2 1 -2 -4
12 12 12 12 12 12 12 12 12 12 12 12 11 11 10 10 10 9 9 8 8 8 8 7 7 7 7 7 7 8 8 8 7 6 5 4 4 5 6 8 10 9 8 7 8 8 9 9 7 6 3 1 0 1 3 4 6 7 7 8 8 6 3 -0 0 1 3 4 4
13 13 12 12 12 12 12 12 12 11 11 12 12 11 11 10 10 10 10 10 9 9 8 7 7 7 6 6 6 7 7 7 7 7 7 5 4 2 2 2 6 9 10 8 7 7 8 8 8 8 6 4 2 1 1 2 4 5 6 7 8 9 8 6 5 5 6 7 8
12 11 11 11 10 10 10 10 10 9 9 10 10 10 10 10 9 9 9 10 9 9 9 8 8 7 7 7 7 7 7 7 7 7 7 6 5 4 2 0 1 4 7 9 8 7 7 7 7 8 8 7 5 4 2 2 2 3 4 5 6 7 9 10 9 8 8 8 9
10 9 9 8 8 8 8 8 8 8 8 9 9 9 9 10 10 10 10 10 10 10 10 10 9 9 10 9 9 8 8 8 7 7 7 7 7 6 4 3 0 1 2 5 7 7 7 7 7 7 7 7 6 6 5 3 3 2 3 3 4 5 7 9 9 8 7 7 8
8 8 8 7 7 7 7 8 8 9 9 10 10 11 11 12 12 12 13 13 13 14 14 13 13 13 13 13 13 12 12 11 11 10 10 10 9 8 7 6 4 2 2 3 5 6 6 7 7 7 7 7 6 6 6 5 4 4 3 3 3 4 5 7 8 8 8 7 7
7 7 7 8 8 8 9 10 10 11 12 13 13 14 15 16 16 16 17 18 18 18 18 18 18 18 18 18 18 18 18 17 16 16 15 15 14 13 12 11 9 7 5 5 6 6 6 7 7 7 7 7 6 6 6 6 6 5 4 4 3 4 5 6 7 8 9 9 9
7 7 8 9 10 11 12 13 14 15 16 17 17 18 19 20 20 20 21 22 22 22 22 23 23 23 23 23 24 24 24 24 23 22 22 21 20 19 18 17 15 13 11 10 10 9 9 8 7 7 7 8 7 7 7 6 6 6 6 5 4 4 5 5 6 7 8 10 11
8 9 10 11 13 14 16 17 18 19 20 20 21 21 22 22 23 23 24 24 25 25 25 26 26 26 27 27 27 28 28 28 28 28 28 27 26 25 25 24 23 21 18 16 16 15 14 12 10 9 9 9 9 9 8 8 8 8 7 7 6 6 5 5 6 6 7 9 11
10 12 13 14 16 17 18 20 20 21 22 22 23 23 23 24 24 24 25 25 25 26 26 26 26 27 27 28 28 29 29 30 30 30 31 31 30 30 29 29 29 27 25 23 22 22 21 19 16 14 13 12 12 12 11 11 10 10 10 9 8 7 7 6 6 7 7 8 10
13 15 16 17 19 20 21 21 22 22 23 23 23 23 24 24 24 24 24 24 24 25 25 25 25 26 26 27 28 28 29 30 31 32 32 33 33 33 32 32 32 32 30 29 28 27 26 25 23 20 18 16 15 15 15 14 14 13 12 12 11 10 9 9 8 8 8 9 10
18 19 20 21 22 22 22 23 23 23 23 23 23 22 22 23 22 22 22 22 23 23 23 23 24 24 25 26 27 28 29 31 33 34 34 35 35 36 36 36 35 35 34 32 31 31 31 31 29 27 24 22 20 19 18 18 17 16 15 14 14 13 12 11 11 10 10 11 11
22 23 24 24 24 24 24 24 24 24 23 23 22 22 21 21 21 20 20 20 21 21 21 21 22 23 24 25 27 29 31 33 35 36 37 38 39 39 39 39 38 38 39 40 37 36 35 35 34 33 30 27 25 23 22 21 20 19 18 18 16 16 15 14 13 13 13 13 13
25 26 26 26 26 25 25 24 24 23 22 21 21 20 19 18 19 19 19 18 19 19 20 20 21 22 24 26 28 30 31 33 34 36 38 39 40 40 40 41 40 39 41 45 44 42 40 38 38 37 35 33 30 28 26 24 22 20 19 19 18 18 16 16 15 15 14 14 14
27 27 27 26 26 25 25 24 23 22 20 19 18 17 17 16 17 17 17 17 18 18 19 20 21 22 24 26 28 29 29 29 30 31 33 36 36 37 38 38 37 34 34 37 37 40 42 40 41 40 38 36 34 32 29 27 23 20 17 17 18 18 18 16 16 15 15 14 14
27 27 26 26 25 24 23 22 20 19 17 16 15 14 14 14 14 15 15 16 17 18 19 20 22 23 25 27 27 26 24 23 23 24 26 28 29 30 30 31 32 32 32 33 31 31 34 38 42 43 41 38 36 34 32 29 26 23 20 16 16 16 17 17 16 15 15 15 15
26 25 25 24 23 22 20 18 16 15 13 12 12 12 12 12 13 14 16 17 19 20 21 22 24 25 26 26 24 21 18 17 18 20 21 22 23 23 23 24 26 28 29 31 31 28 26 29 36 40 42 38 37 36 34 31 25 22 20 19 16 17 18 18 17 16 16 15 15
24 23 22 21 19 17 15 13 11 10 10 10 11 12 13 14 15 17 18 20 22 23 24 25 26 27 26 25 20 16 14 14 17 19 20 20 20 20 20 20 20 22 23 26 29 27 24 22 27 33 37 38 38 37 35 32 27 24 21 18 18 18 19 20 19 18 17 16 15
21 20 18 16 13 11 9 8 8 8 9 11 13 15 16 18 20 22 23 25 26 27 27 28 28 28 26 23 18 14 13 15 17 19 20 21 22 22 22 21 20 20 20 22 25 26 25 23 25 29 34 37 38 36 32 26 24 22 20 19 19 19 20 21 21 20 20 18 17
17 15 13 10 8 7 6 6 7 9 12 15 17 19 21 22 24 26 28 29 29 29 29 30 30 28 25 20 16 14 15 16 18 20 21 22 24 24 25 25 24 22 22 22 24 26 26 26 27 30 33 37 38 34 28 20 17 16 17 17 16 17 19 21 22 22 21 21 20
12 10 8 6 5 6 6 7 10 13 17 20 21 22 23 24 26 28 30 31 32 32 32 31 30 26 22 17 15 15 17 19 20 21 21 22 24 26 27 28 28 27 26 26 27 28 29 30 30 32 34 37 38 34 28 21 16 14 14 13 14 16 19 22 23 23 22 22 22
7 6 5 5 6 8 10 13 16 19 21 22 22 22 23 25 28 30 32 33 34 33 32 31 27 22 18 15 16 18 19 20 20 20 19 19 21 24 28 30 32 32 32 32 32 33 34 34 34 35 36 39 37 33 27 21 19 17 15 14 16 20 23 24 24 23 23 22 23
7 7 8 9 11 13 16 18 20 22 22 22 21 22 23 26 30 32 34 35 34 32 29 26 21 18 16 16 18 18 18 18 18 18 18 17 19 24 30 35 37 38 37 37 37 38 38 37 36 36 36 34 26 17 10 9 14 15 16 16 20 24 26 25 23 22 22 22 22
12 13 14 16 18 19 21 22 22 22 22 20 21 23 26 30 32 34 34 34 31 28 24 20 17 16 16 16 16 16 16 17 18 18 18 19 22 30 37 43 42 39 37 37 38 38 37 34 32 29 23 13 0 -6 -3 9 20 22 18 13 16 19 21 20 20 19 18 17 16
18 19 20 21 22 22 23 23 22 22 21 21 23 26 30 33 35 34 32 29 26 22 19 16 15 15 15 14 13 14 15 17 18 19 21 24 32 39 44 44 38 33 31 32 34 32 30 26 21 12 -0 -14 -15 -5 12 30 37 37 30 18 12 10 11 13 12 10 8 10 12
22 22 23 23 24 24 23 22 22 21 22 24 27 31 34 36 34 31 27 23 20 17 16 15 15 15 15 14 15 16 17 18 20 23 26 32 36 38 37 34 29 27 25 26 25 24 22 18 7 -7 -18 -20 -0 19 34 39 42 41 34 19 7 3 3 3 3 5 9 12 12
23 24 24 24 24 24 23 22 21 22 25 29 32 35 35 34 30 26 22 18 16 15 14 14 14 14 14 15 17 19 20 21 23 25 28 29 28 26 24 25 26 25 23 20 21 22 20 9 -10 -18 -14 5 26 35 35 31 33 30 22 8 0 -2 -2 -2 3 7 9 9 10
24 25 25 24 24 23 22 22 23 26 30 34 35 35 32 28 24 20 17 15 15 14 13 12 12 13 14 16 19 21 23 24 24 23 22 21 24 25 26 27 26 23 21 22 27 24 11 -11 -20 -10 10 33 36 32 25 21 20 14 5 -5 -6 -5 -2 2 8 9 7 6 7
26 26 26 25 24 23 23 24 27 31 34 36 34 31 27 22 18 16 14 14 14 12 11 10 12 15 17 20 21 22 23 23 21 19 21 27 32 32 29 26 22 20 22 29 29 14 -7 -25 -13 9 30 40 31 23 17 14 13 7 -2 -10 -8 -4 3 11 10 8 6 5 7
27 26 26 24 24 24 25 28 31 34 35 33 29 25 21 17 15 14 13 13 11 10 10 11 16 19 22 22 22 22 21 20 19 22 28 34 31 27 24 22 18 20 25 33 20 -1 -19 -22 0 21 34 34 26 20 18 18 19 14 5 -6 -7 -2 6 11 8 6 5 6 8
27 26 25 24 25 26 28 31 33 33 32 28 24 20 16 15 14 13 12 10 10 10 12 16 21 24 25 23 21 20 19 19 22 26 30 28 22 19 18 19 19 23 26 25 5 -12 -19 -10 11 24 30 28 25 24 25 28 32 28 19 5 -3 -2 3 5 5 5 6 7 9
26 25 25 25 26 28 30 32 32 29 26 23 19 16 14 13 13 12 11 10 10 12 16 20 24 26 25 22 20 19 19 20 24 27 26 20 15 13 15 18 21 22 19 8 -10 -17 -13 3 17 24 25 24 24 27 31 36 41 39 30 15 3 -2 -2 2 4 6 7 8 9
24 25 25 26 28 29 30 30 28 24 21 18 16 15 13 13 12 11 11 11 13 15 18 22 24 24 23 20 18 18 19 21 24 24 22 16 13 12 13 16 20 18 9 -7 -15 -11 0 14 20 22 23 22 24 27 32 38 43 39 30 17 5 -1 -2 1 4 6 8 9 9
24 25 26 27 28 28 27 26 23 20 18 16 14 13 13 12 12 12 13 14 15 17 19 21 21 21 20 18 16 16 16 18 21 22 21 18 15 13 12 13 16 12 3 -9 -5 4 13 18 20 22 22 22 23 26 31 37 38 32 22 12 4 0 0 2 5 7 8 9 9
Height
5590 5589 5589 5588 5588 5587 5587 5587 5587 5587 5587 5587 5587 5587 5587 5588 5588 5587 5587 5587 5587 5587 5587 5587 5587 5587 5587 5588 5588 5588 5588 5588 5590 5591 5592 5593 5594 5595 5596 5597 5597 5597 5598 5598 5599 5600 5601 5602 5603 5604 5606 5607 5610 5611 5613 5617 5618 5617 5614 5613 5613 5616 5618 5618 5617 5617 5617 5617 5617
5584 5583 5583 5582 5581 5580 5580 5580 5580 5579 5579 5579 5579 5579 5579 5580 5580 5580 5580 5581 5580 5580 5580 5580 5581 5581 5581 5580 5580 5581 5581 5582 5583 5583 5585 5586 5587 5588 5589 5590 5591 5592 5592 5592 5593 5593 5594 5595 5596 5598 5599 5600 5603 5604 5606 5611 5613 5613 5610 5609 5608 5609 5610 5612 5611 5611 5612 5613 5613
5578 5577 5576 5575 5574 5574 5573 5573 5573 5572 5572 5572 5572 5572 5572 5572 5572 5572 5573 5573 5573 5573 5573 5573 5574 5574 5574 5573 5573 5573 5574 5575 5576 5577 5578 5578 5579 5581 5582 5583 5584 5585 5586 5586 5587 5587 5588 5589 5590 5591 5593 5594 5596 5597 5600 5603 5608 5608 5606 5604 5603 5604 5604 5604 5604 5605 5607 5608 5608
5572 5571 5570 5569 5568 5567 5566 5566 5565 5565 5565 5564 5564 5564 5564 5564 5564 5564 5564 5565 5565 5565 5566 5566 5566 5567 5567 5567 5567 5567 5567 5567 5568 5569 5570 5571 5572 5573 5574 5575 5576 5577 5578 5580 5580 5581 5582 5583 5584 5585 5586 5588 5589 5591 5593 5596 5601 5602 5600 5599 5600 5600 5599 5599 5601 5603 5604 5605 5604
5566 5564 5563 5562 5561 5560 5559 5559 5558 5558 5557 5557 5557 5557 5556 5556 5556 5556 5556 5557 5557 5557 5558 5558 5558 5558 5559 5559 5559 5559 5560 5560 5561 5562 5563 5564 5565 5566 5566 5567 5568 5569 5570 5572 5573 5574 5575 5576 5578 5579 5580 5581 5583 5584 5587 5589 5593 5595 5595 5595 5595 5594 5594 5595 5597 5599 5601 5602 5602
5559 5558 5557 5555 5554 5553 5552 5552 5551 5550 5549 5549 5549 5549 5549 5548 5548 5548 5548 5548 5549 5549 5549 5550 5550 5550 5550 5551 5551 5552 5552 5553 5553 5554 5555 5556 5558 5558 5559 5559 5560 5561 5562 5563 5565 5567 5568 5569 5571 5573 5574 5575 5576 5577 5579 5582 5584 5587 5589 5591 5589 5588 5588 5589 5590 5593 5595 5596 5597
5552 5551 5550 5548 5547 5546 5545 5544 5543 5543 5542 5542 5542 5541 5541 5540 5540 5540 5540 5540 5540 5541 5541 5542 5542 5542 5542 5542 5543 5543 5544 5545 5546 5547 5548 5548 5549 5550 5551 5552 5552 5553 5554 5555 5557 5558 5560 5562 5564 5566 5568 5569 5570 5571 5572 5574 5576 5578 5580 5583 5583 5584 5584 5583 5584 5586 5587 5588 5588
5545 5543 5542 5541 5540 5539 5538 5537 5536 5535 5534 5534 5534 5533 5533 5533 5532 5532 5532 5532 5532 5532 5532 5533 5533 5533 5533 5533 5534 5534 5535 5536 5538 5539 5539 5540 5541 5542 5543 5543 5544 5545 5546 5547 5548 5550 5552 5554 5556 5558 5561 5563 5564 5565 5566 5567 5569 5571 5572 5573 5576 5578 5579 5578 5578 5579 5580 5581 5581
5538 5536 5535 5534 5533 5531 5530 5529 5528 5527 5527 5526 5526 5525 5525 5524 5524 5524 5523 5523 5523 5523 5523 5524 5524 5524 5524 5525 5525 5525 5526 5527 5528 5529 5531 5532 5533 5534 5535 5535 5536 5537 5538 5540 5541 5542 5544 5546 5548 5551 5553 5555 5557 5558 5559 5561 5562 5564 5565 5566 5568 5571 5573 5573 5573 5573 5574 5576 5577
5530 5529 5528 5527 5525 5524 5523 5521 5520 5519 5518 5518 5518 5517 5517 5516 5516 5515 5515 5514 5514 5514 5515 5515 5515 5515 5515 5516 5516 5516 5517 5518 5519 5520 5521 5523 5524 5525 5527 5527 5528 5528 5529 5532 5533 5534 5536 5538 5540 5543 5545 5548 5550 5551 5553 5554 5556 5557 5558 5559 5561 5563 5564 5566 5566 5567 5568 5570 5572
5523 5522 5520 5519 5518 5516 5514 5513 5512 5511 5510 5510 5509 5509 5508 5508 5508 5507 5506 5506 5506 5506 5506 5506 5505 5506 5506 5506 5506 5507 5507 5508 5509 5510 5511 5513 5514 5516 5518 5519 5520 5520 5521 5523 5524 5526 5528 5529 5532 5534 5537 5539 5542 5544 5545 5547 5548 5550 5551 5552 5554 5555 5557 5559 5561 5562 5563 5564 5566
5516 5514 5513 5511 5510 5508 5507 5505 5504 5503 5502 5501 5501 5500 5499 5499 5498 5498 5497 5497 5497 5497 5497 5496 5496 5497 5497 5496 5496 5497 5498 5498 5499 5500 5501 5503 5504 5506 5508 5509 5511 5512 5513 5514 5515 5517 5519 5522 5524 5526 5529 5532 5534 5536 5538 5540 5541 5543 5544 5545 5547 5549 5550 5552 5554 5556 5558 5559 5561
5508 5507 5505 5503 5502 5500 5498 5497 5495 5494 5493 5492 5492 5491 5490 5490 5489 5488 5488 5488 5488 5487 5487 5487 5487 5487 5487 5487 5487 5487 5488 5488 5488 5490 5491 5492 5494 5495 5497 5499 5501 5503 5504 5505 5506 5508 5510 5513 5516 5518 5521 5523 5526 5528 5530 5532 5534 5536 5537 5538 5540 5542 5543 5545 5547 5549 5552 5554 5556
5501 5499 5498 5496 5494 5492 5490 5488 5487 5485 5484 5483 5483 5482 5481 5480 5480 5479 5478 5478 5478 5477 5477 5477 5477 5477 5477 5477 5477 5477 5477 5478 5478 5479 5480 5482 5483 5485 5487 5488 5490 5493 5494 5496 5497 5498 5501 5504 5507 5510 5513 5515 5518 5519 5522 5524 5526 5528 5530 5532 5533 5535 5537 5538 5540 5543 5545 5547 5549
5493 5491 5489 5488 5486 5484 5482 5480 5478 5477 5475 5474 5473 5472 5472 5471 5470 5469 5469 5468 5468 5467 5467 5467 5467 5467 5467 5467 5467 5467 5467 5467 5468 5469 5470 5471 5473 5474 5476 5478 5479 5482 5484 5486 5487 5488 5491 5495 5498 5501 5504 5507 5509 5511 5513 5516 5518 5520 5523 5524 5527 5528 5530 5532 5534 5536 5538 5540 5542
5485 5483 5481 5479 5477 5475 5473 5471 5469 5468 5467 5465 5464 5463 5462 5462 5461 5460 5459 5459 5458 5458 5457 5457 5457 5457 5457 5457 5457 5457 5457 5457 5458 5458 5459 5461 5462 5464 5465 5467 5469 5471 5473 5475 5477 5479 5482 5484 5488 5491 5494 5498 5500 5503 5505 5508 5510 5513 5515 5517 5519 5522 5523 5525 5528 5530 5532 5534 5536
5477 5474 5473 5471 5468 5467 5465 5463 5461 5459 5458 5457 5456 5454 5453 5453 5452 5451 5450 5450 5449 5448 5448 5448 5448 5448 5447 5448 5448 5448 5448 5447 5448 5448 5449 5450 5452 5453 5454 5456 5458 5460 5463 5465 5467 5469 5471 5474 5478 5482 5485 5488 5491 5494 5497 5499 5502 5504 5507 5510 5512 5514 5517 5519 5521 5523 5526 5528 5530
5469 5467 5464 5463 5460 5458 5457 5455 5453 5452 5450 5449 5448 5446 5445 5444 5443 5443 5442 5441 5441 5440 5439 5439 5439 5439 5439 5439 5438 5438 5438 5438 5438 5438 5439 5441 5442 5443 5444 5446 5448 5450 5452 5454 5457 5459 5461 5464 5468 5472 5475 5479 5482 5485 5488 5491 5494 5497 5499 5502 5505 5508 5510 5513 5515 5518 5520 5522 5524
5461 5459 5457 5455 5453 5451 5449 5447 5446 5444 5443 5441 5440 5439 5438 5437 5436 5435 5434 5433 5433 5432 5432 5431 5431 5431 5431 5431 5430 5430 5430 5429 5429 5429 5430 5431 5432 5433 5434 5436 5438 5440 5442 5444 5447 5449 5451 5454 5458 5462 5466 5469 5473 5477 5480 5483 5486 5489 5492 5495 5498 5501 5503 5506 5509 5512 5514 5516 5519
5454 5452 5449 5447 5445 5443 5442 5440 5438 5437 5435 5434 5433 5432 5430 5429 5429 5428 5427 5426 5426 5425 5424 5423 5423 5423 5423 5423 5423 5422 5422 5421 5421 5421 5421 5422 5423 5424 5425 5427 5428 5430 5432 5434 5437 5439 5442 5444 5448 5452 5456 5460 5464 5468 5472 5475 5479 5482 5485 5488 5491 5494 5497 5500 5503 5506 5508 5511 5513
5446 5444 5442 5440 5438 5436 5434 5433 5431 5430 5428 5427 5426 5425 5423 5423 5422 5421 5420 5419 5419 5418 5418 5417 5417 5416 5416 5416 5415 5415 5414 5414 5414 5413 5414 5414 5415 5416 5417 5418 5420 5422 5424 5426 5428 5431 5434 5436 5439 5443 5447 5452 5456 5460 5464 5468 5472 5476 5479 5482 5484 5488 5491 5494 5498 5500 5503 5506 5508
5439 5437 5435 5433 5431 5429 5428 5426 5424 5423 5422 5420 5419 5418 5417 5416 5415 5414 5413 5413 5412 5412 5411 5410 5410 5410 5409 5409 5409 5408 5408 5408 5408 5407 5407 5408 5408 5409 5410 5411 5413 5415 5417 5418 5420 5423 5426 5428 5431 5435 5439 5443 5448 5452 5457 5461 5466 5470 5473 5476 5479 5482 5486 5489 5492 5495 5498 5501 5503
5433 5430 5428 5427 5425 5423 5421 5420 5418 5417 5415 5414 5413 5412 5411 5409 5408 5408 5407 5406 5406 5405 5404 5404 5403 5403 5403 5403 5402 5402 5402 5402 5402 5402 5402 5402 5403 5403 5404 5405 5407 5408 5409 5410 5413 5416 5419 5422 5424 5427 5431 5436 5440 5445 5450 5455 5461 5466 5469 5472 5474 5478 5481 5484 5487 5490 5493 5496 5499
5426 5424 5422 5420 5419 5417 5415 5414 5412 5411 5409 5408 5407 5405 5404 5403 5402 5401 5400 5399 5399 5398 5398 5397 5397 5397 5397 5396 5397 5397 5397 5397 5397 5397 5397 5397 5397 5398 5398 5399 5401 5402 5403 5404 5406 5409 5412 5415 5418 5421 5425 5429 5434 5438 5444 5450 5455 5459 5464 5467 5470 5473 5476 5479 5483 5486 5489 5492 5494
5420 5418 5417 5415 5413 5411 5410 5408 5407 5405 5403 5402 5401 5399 5398 5397 5395 5394 5393 5393 5393 5392 5392 5391 5391 5390 5391 5391 5391 5391 5392 5392 5391 5391 5392 5392 5392 5393 5393 5394 5394 5395 5397 5398 5400 5403 5405 5408 5411 5415 5419 5424 5428 5433 5439 5445 5449 5454 5458 5462 5465 5468 5471 5475 5478 5481 5484 5487 5490
5415 5413 5411 5409 5408 5406 5404 5403 5401 5399 5398 5396 5395 5393 5392 5390 5389 5388 5387 5386 5386 5386 5385 5385 5384 5384 5385 5385 5386 5387 5387 5387 5387 5386 5387 5387 5387 5388 5388 5388 5389 5390 5391 5393 5395 5398 5400 5403 5406 5410 5414 5419 5424 5429 5435 5440 5444 5448 5453 5458 5461 5464 5467 5470 5474 5477 5480 5483 5486
5410 5408 5406 5404 5402 5401 5399 5397 5396 5394 5392 5390 5388 5387 5385 5384 5383 5382 5381 5380 5380 5379 5379 5379 5379 5379 5380 5381 5381 5382 5382 5382 5382 5382 5382 5382 5382 5383 5383 5383 5384 5385 5386 5388 5390 5393 5396 5398 5402 5406 5410 5415 5420 5425 5431 5436 5440 5445 5449 5453 5457 5460 5463 5466 5469 5473 5476 5479 5482
5404 5402 5400 5398 5397 5395 5393 5392 5390 5388 5386 5384 5383 5381 5379 5378 5377 5376 5375 5374 5374 5374 5374 5374 5374 5375 5375 5376 5377 5378 5378 5378 5378 5378 5378 5378 5378 5378 5378 5379 5379 5380 5382 5384 5386 5389 5392 5395 5398 5403 5407 5412 5417 5422 5427 5433 5437 5441 5445 5449 5453 5457 5460 5463 5466 5469 5472 5475 5478
5399 5397 5395 5393 5391 5389 5388 5386 5384 5383 5380 5378 5377 5375 5373 5372 5371 5370 5370 5369 5369 5369 5369 5370 5370 5371 5372 5372 5373 5373 5373 5373 5373 5373 5373 5373 5373 5374 5374 5374 5375 5376 5377 5380 5382 5385 5388 5392 5396 5400 5404 5409 5414 5420 5426 5431 5435 5439 5443 5446 5450 5453 5457 5460 5463 5466 5469 5471 5474
5393 5391 5389 5387 5385 5383 5382 5380 5378 5377 5375 5373 5371 5370 5368 5367 5366 5365 5365 5365 5365 5365 5366 5366 5367 5367 5368 5368 5369 5369 5370 5370 5370 5370 5370 5370 5370 5370 5370 5371 5371 5372 5374 5376 5379 5383 5386 5390 5393 5398 5402 5407 5412 5418 5424 5429 5433 5437 5441 5444 5447 5450 5453 5457 5459 5463 5465 5468 5470
5387 5385 5383 5381 5379 5377 5376 5374 5373 5371 5369 5368 5366 5365 5363 5363 5362 5361 5361 5361 5361 5362 5363 5363 5364 5364 5364 5365 5365 5366 5366 5366 5366 5367 5367 5367 5367 5367 5367 5368 5368 5369 5371 5374 5377 5380 5384 5387 5391 5395 5398 5403 5409 5415 5421 5425 5429 5433 5438 5442 5445 5448 5450 5453 5456 5459 5462 5464 5467
5381 5379 5377 5375 5373 5371 5370 5368 5367 5366 5364 5363 5362 5360 5359 5358 5358 5358 5358 5358 5358 5359 5360 5360 5361 5361 5361 5362 5362 5362 5363 5363 5363 5364 5364 5364 5364 5364 5364 5365 5366 5368 5369 5372 5375 5378 5381 5384 5387 5391 5396 5402 5407 5412 5416 5420 5424 5429 5433 5438 5442 5445 5448 5450 5453 5456 5459 5461 5464
5376 5373 5371 5369 5367 5366 5364 5363 5362 5361 5359 5358 5357 5357 5356 5355 5355 5355 5355 5356 5356 5357 5357 5358 5358 5358 5358 5358 5359 5359 5360 5360 5361 5361 5361 5362 5362 5362 5363 5364 5365 5367 5368 5371 5373 5376 5379 5382 5385 5389 5395 5400 5405 5409 5412 5415 5419 5425 5430 5435 5439 5442 5445 5448 5451 5453 5456 5458 5461
5370 5368 5366 5364 5362 5361 5359 5358 5357 5356 5355 5354 5354 5353 5353 5353 5352 5353 5353 5354 5354 5354 5355 5355 5355 5355 5355 5356 5356 5357 5357 5358 5358 5359 5359 5360 5360 5361 5362 5363 5364 5365 5368 5370 5373 5375 5378 5381 5385 5390 5395 5399 5403 5405 5408 5411 5417 5422 5428 5432 5436 5439 5443 5445 5448 5450 5453 5456 5458
5365 5363 5361 5359 5358 5356 5355 5354 5353 5352 5352 5351 5351 5350 5350 5350 5350 5351 5351 5352 5352 5352 5353 5353 5353 5353 5353 5353 5354 5354 5355 5356 5356 5357 5358 5358 5359 5359 5360 5361 5362 5364 5367 5370 5372 5375 5378 5382 5386 5390 5394 5397 5399 5401 5404 5409 5414 5420 5425 5429 5433 5437 5440 5443 5445 5448 5450 5453 5455
5360 5358 5356 5354 5353 5352 5351 5350 5349 5349 5348 5348 5348 5348 5348 5348 5349 5349 5349 5350 5350 5350 5351 5351 5351 5351 5351 5351 5352 5352 5353 5354 5355 5356 5357 5358 5358 5358 5358 5359 5361 5364 5367 5370 5372 5375 5378 5383 5387 5389 5391 5393 5396 5398 5402 5407 5412 5418 5423 5427 5432 5435 5438 5440 5443 5445 5447 5449 5451
5356 5354 5352 5351 5349 5348 5348 5347 5346 5346 5346 5346 5346 5346 5346 5347 5347 5348 5348 5348 5348 5348 5349 5349 5349 5349 5349 5349 5350 5350 5352 5353 5354 5355 5356 5356 5356 5356 5357 5358 5360 5363 5367 5369 5372 5375 5379 5383 5385 5387 5388 5390 5393 5396 5400 5404 5409 5414 5420 5425 5429 5433 5435 5438 5439 5442 5443 5446 5448
5353 5351 5349 5348 5346 5346 5345 5344 5344 5343 5343 5344 5344 5344 5345 5345 5345 5346 5346 5346 5346 5347 5347 5347 5347 5347 5347 5348 5348 5349 5350 5351 5353 5354 5354 5354 5354 5355 5356 5358 5361 5363 5366 5369 5372 5376 5379 5382 5383 5383 5385 5387 5390 5393 5397 5401 5406 5411 5417 5422 5426 5430 5433 5434 5436 5438 5440 5442 5444
5350 5348 5346 5345 5344 5343 5343 5342 5342 5342 5342 5342 5343 5343 5343 5344 5344 5344 5345 5345 5345 5345 5345 5345 5345 5346 5346 5347 5347 5348 5349 5350 5351 5353 5353 5353 5353 5354 5356 5358 5361 5364 5367 5369 5372 5375 5377 5379 5379 5381 5382 5385 5388 5391 5394 5398 5403 5408 5414 5419 5423 5426 5429 5431 5433 5435 5437 5439 5441
5347 5346 5344 5343 5342 5341 5341 5340 5340 5340 5340 5341 5341 5342 5342 5342 5343 5343 5343 5343 5343 5343 5344 5344 5344 5344 5345 5346 5346 5347 5348 5349 5350 5351 5351 5352 5353 5354 5357 5359 5362 5365 5367 5369 5372 5374 5375 5376 5377 5378 5380 5383 5386 5389 5393 5397 5401 5407 5412 5416 5420 5423 5426 5428 5431 5433 5435 5437 5439
5345 5343 5342 5341 5340 5339 5339 5339 5339 5339 5339 5340 5340 5340 5341 5341 5342 5342 5342 5342 5342 5342 5343 5343 5343 5343 5344 5345 5345 5346 5346 5347 5348 5350 5350 5351 5352 5354 5357 5360 5363 5365 5367 5369 5371 5372 5372 5373 5374 5376 5378 5381 5384 5388 5391 5396 5400 5405 5410 5413 5417 5421 5423 5426 5428 5431 5433 5435 5438